Simultaneous Nadir Overpasses (SNOs) Predictions

Prediction of SNOs between FY3D and NOAA-19 Satellite Orbit:

Table of predicted SNOs for the next 14.0 days since TLE Epoch: 11/2/2019
Index Date (FY3D) Time (FY3D) Lat,Lon (FY3D) SZA (FY3D ) Date (NOAA-19) Time (NOAA-19) Lat,Lon (NOAA-19) SZA (NOAA-19 ) Distance(km) Time Diff (sec)
1 11/08/2019 23:40:21 -79.84, -31.23 82.02 11/08/2019 23:39:09 -79.84, -31.10 82.00 2.53 72
2 11/09/2019 00:31:05 79.83, 136.14 97.99 11/09/2019 00:30:04 79.84, 136.19 98.01 1.50 61
3 11/09/2019 01:21:50 -79.83, -56.56 82.01 11/09/2019 01:21:10 -79.83, -56.69 81.98 2.39 40
4 11/09/2019 02:12:35 79.86, 110.52 98.05 11/09/2019 02:12:05 79.84, 110.61 98.04 3.03 30
5 11/09/2019 03:03:19 -79.83, -81.90 81.99 11/09/2019 03:03:10 -79.85, -81.97 81.96 2.89 9
6 11/09/2019 03:54:04 79.85, 85.18 98.07 11/09/2019 03:54:05 79.85, 85.33 98.05 2.83 1
7 11/09/2019 04:44:49 -79.86,-107.52 81.93 11/09/2019 04:45:11 -79.85,-107.55 81.94 1.27 22
8 11/09/2019 05:35:33 79.85, 59.85 98.08 11/09/2019 05:36:06 79.85, 59.75 98.07 2.03 33
9 11/09/2019 06:26:18 -79.85,-132.85 81.91 11/09/2019 06:27:11 -79.86,-132.83 81.93 1.42 53
10 11/09/2019 07:17:02 79.85, 34.51 98.09 11/09/2019 07:18:06 79.87, 34.47 98.09 2.36 64




NCC Satellite Simultaneous Nadir Overpasses (SNOs) Prediction Service
